Погода в Байките

Погода в Байките : погода сейчас, прогноз погоды и архив. Всё, что Вы хотите узнать о погоде в Байките!

Хотите узнать прогноз погоды в Байките? Тогда Вам сюда: Погода в Байките

Поиск расширенной информации на нашем сайте:

Другие новости

Новости СМИ2

Главная страница сайта

Новости сайта

03.07.2017

Напоминаем, что на нашем специализированном сайте Метеоцентр.Азия вы можете получить высокодетализированные автоматические прогнозы погоды по пунктам России, СНГ и мира в авиационном формате (включающие направление и скорость ветра, видимость, явления погоды, количество и форму облачности, нижнюю и верхнюю границу облачности).


Погода в Байките - сегодня

Время (UTC), дата Ветер
(°,м/с) 
Видим.   Явления Облачность Т
(°С)
Тd
(°С)
f(%) Тe
(°С)
Pmin
(гПа)
dP
(гПа)
Po
(мм)
O2
(г/м3)
Тmin Tmax R s Состояние
почвы
12 20.09.17 тихо ()   20000 м    9/8 1000 м верхняя 
[Sc|Ci fib]
+6.8 -4 46 +7  1016.6  0.1  740  291    +12       
15 20.09.17 тихо ()   4000 м    ясно 
+2.4 -1.9 73 +2  1017.6  0.6  740  296           
18 20.09.17 тихо ()   4000 м    ясно 
+0.4 -1.2 89 1018  0.1  740  298           
21 20.09.17 310 (СЗ) 4000 м    1/0 верхняя 
[Ci fib]
-1.8 -2.9 92 -1  1017.2  -1  740  300           
00 21.09.17 330 (СЗ) 20000 м    8/8 600 м 
[Sc]
-2.1 -3 94 -2  1016.8  -0.5  739  300  -0.4         
03 21.09.17 120 (ЮВ) 20000 м    8/8 600 м 
[Sc]
+0.2 -1.2 90 +1  1015.9  -0.5  739  298           
06 21.09.17 тихо ()   20000 м    9/9 600 м 
[Sc]
+4.4 -2 63 +4  1013.6  -1.8  737  293           
09 21.09.17 тихо ()   20000 м    9/9 600 м средняя 
[Sc|Ac trans]
+7.4 -2 51 +7  1011.1  -2.2  736  289           
12 21.09.17 330 (СЗ) 20000 м    9/8 600 м средняя 
[Sc|Ac trans]
+6.2 -1.3 59 +7  1010.2  -0.9  735  290    +7.4       
15 21.09.17 320 (СЗ) 4000 м    9/8 600 м средняя 
[Sc|Ac trans]
+3.1 -1 74 +4  1009.3  -1.1  734  293           
18 21.09.17 070 (В) 4000 м    9/9 600 м средняя 
[Sc|Ac trans]
+1.4 -1.4 82 +2  1008.5  -1.1  733  294           
21 21.09.17 тихо ()   4000 м    9/9 600 м средняя 
[Sc|Ac trans]
+1.1 -0.9 86 +1  1007.6  -0.9  733  294           
00 22.09.17 330 (СЗ) 20000 м    9/8 600 м средняя 
[Sc|As op]
+1.1 -0 92 +2  1007.5  -0.1  733  294  +1.1         
03 22.09.17 тихо ()   4000 м  слаб. ливневой дождь  10/10 300 м кучево-дожд. 
[Cb cap]
+2.4 +1.9 97 +2  1007.5  0.1  733  292           
06 22.09.17 тихо ()   4000 м  в посл. час ливневой дождь  10/10 300 м кучево-дожд. 
[Cb cap]
+3.8 +2.6 92 +4  1007.7  0.4  733  291           
09 22.09.17 тихо ()   4000 м  {ливн. осадки}  10/10 300 м кучево-дожд. 
[Cb cap]
+4.7 +3.2 90 +5  1008.2  0.6  734  290           
12 22.09.17 300 (СЗ) 20000 м  слаб. ливневой дождь  10/10 600 м кучево-дожд. 
[Cb cap]
+4.5 +3.5 93 +5  1009.6  1.4  735  291    +4.8     
15 22.09.17 330 (СЗ) 4000 м  слаб. ливневой дождь  10/10 600 м кучево-дожд. 
[Cb cap]
+3.2 +2.4 94 +3  1010.7  0.9  735  292           
18 22.09.17 330 (СЗ) 4000 м  слаб. ливневой дождь  10/10 600 м кучево-дожд. 
[Cb cap]
+3 +2.5 97 +4  1011.4  0.7  736  293           
21 22.09.17 тихо ()   2000 м  дымка{ливн. осадки}  10/10 600 м кучево-дожд. 
[Cb cap]
+2.7 +2.2 96 +3  1012.5  737  293           
00 23.09.17 тихо ()   4000 м  дымка{ливн. осадки}  9/8 600 м кучево-дожд., средняя 
[Cb cap|Ac trans]
+2.2 +1.7 96 +2  1013.5  0.9  737  294  +2.2       
03 23.09.17 тихо ()   4000 м  дымка{ливн. осадки}  9/9 600 м верхняя 
[Cu hum|Cs]
+2.9 +2.1 94 +3  1014.3  0.9  738  294           
06 23.09.17 330 (СЗ) 20000 м  {ливн. осадки}  9/9 600 м кучево-дожд. 
[Cb cap]
+6.1 +1.6 73 +6  1014.6  0.6  738  291           
09 23.09.17 050 (СВ) 20000 м    9/9 1000 м 
[Sc]
+5.8 +1.3 73 +7  1015.1  0.4  739  291           
12 23.09.17 340 (С) 20000 м    9/9 1000 м 
[Sc]
+5.2 +0.9 74 +6  1015.6  0.5  739  292    +6.9  0.0     
Время (UTC), дата Ветер
(°,м/с) 
Видим.   Явления Облачность Т
(°С)
Тd
(°С)
f(%) Тe
(°С)
Pmin
(гПа)
dP
(гПа)
Po
(мм)
O2
(г/м3)
Тmin Tmax R s Состояние
почвы

Для получения пояснительной информации подведите курсор к названию столбца.

ПОГОДА в Байките - архив

Всё, что Вы хотите узнать о погоде в Байките - удобно и подробно!

Выберите нужную дату (начиная с 1 января 2015* года) и нажмите кнопку "Найти".
Будут отображены архивные сводки погоды по пункту Байкит, начиная с указанной даты.


Отображать данные в формате CSV (для использования в таблицах Excel)


Внимание! Наш архив погоды предназначен исключительно для личного некоммерческого использования в познавательных целях. Если Вам необходимы официальные справки о состоянии погоды (для производственных, юридических, коммерческих и т.п. целей), обращайтесь в органы Росгидромета.

*Примечание: данная дата относится к архиву по метеостанциям СССР (Россия, СНГ, Балтия).
Архив по метеостанциям Зарубежной Европы и Азии (кроме Китая) хранится 10 дней, по другим регионам земного шара (Китай, Африка, Америка, Австралия, Океания) - 1 день.

Байкит - район местоположения метеостанции


Название, широта, долгота, высота метеостанции:
Байкит 61.7°ш. 96.4°д. 262 м над ур. моря [Российская Федерация]

Дополнительная информация

В oтличие oт бoльшинства пoгoдных сайтoв мы публикуем пoдрoбную метеoинфoрмацию в детальнoм прoфессиoнальнoм фoрмате.

Характеристики температуры и влажнoсти вoздуха измеряются на высoте 2 м в тени вдали oт зданий и деревьев.
Скoрoсть ветра измеряется на высoте 10 м (на урoвне рoста челoвека скoрoсть ветра ниже в 1.5-2 раза). Если метеoстанция нахoдится в гoрoде или в лесу, тo скoрoсть ветра занижена на 2-4 м/с пo сравнению с oткрытым местoм. Скoрoсть ветра над акватoриями крупных рек и oзёр, а также на вершинах хoлмoв на 2-5 м/с выше, чем в oбычных услoвиях.
Атмoсфернoе давление в разных тoчках местнoсти мoжет значительнo oтличаться oт давления на метеoстанции, в зависимoсти oт услoвий рельефа (при пoдъёме на 10 м давление пoнижается примернo на 1 мм рт.ст.).